Groton, CT

2:26 PM EST on February 23, 2017 (GMT -0500)
Groton-New London

Weather History for KGON - November, 2010

Change the Weather History Date:

Tuesday, November 16, 2010

  Actual Average Record
Temperature  
Mean Temperature 52 °F -  
Max Temperature 55 °F 51 °F 65 °F (1989)
Min Temperature 48 °F 32 °F 19 °F (1967)
Degree Days  
Heating Degree Days 14    
Growing Degree Days 2 (Base 50)    
Moisture  
Dew Point 47 °F    
Average Humidity 84    
Maximum Humidity 90    
Minimum Humidity 75    
Precipitation  
Precipitation 0.11 in - - ()
Sea Level Pressure  
Sea Level Pressure 30.03 in    
Wind  
Wind Speed 6 mph (East)    
Max Wind Speed 21 mph    
Max Gust Speed 30 mph    
Visibility 7 miles    
Events Rain    
Averages and records for this station are not official NWS values.
T = Trace of Precipitation, MM = Missing Value Source: NWS Daily Summary

Daily Weather History Graph

Daily Weather History Graph

Search for Another Location

Airport or City:

Trip Planner

Search our weather history database for the weather conditions in past years. The results will help you decide how hot, cold, wet, or windy it might be!

Date:

Astronomy

Nov. 16, 2010 Rise Set
Actual Time 6:37 AM EST 4:27 PM EST
Civil Twilight 6:07 AM EST 4:57 PM EST
Nautical Twilight 5:34 AM EST 5:31 PM EST
Astronomical Twilight 5:01 AM EST 6:03 PM EST
Moon 1:36 PM EST (11/16) 1:33 AM EST (11/16)
Length of Visible Light 10h 49m
Length of Day
9h 50m
Waxing Gibbous, 77% of the Moon is Illuminated
Nov 16
Waxing Gibbous
Nov 21
Full
Nov 28
Last Quarter
Dec 5
New
Dec 13
First Quarter

Hourly Weather History & Observations

Time (EST) Temp. Dew Point Humidity Pressure Visibility Wind Dir Wind Speed Gust Speed Precip Events Conditions
12:56 AM 48.0 °F 45.0 °F 89% 30.04 in 6.0 mi North 3.5 mph - N/A   Overcast
1:56 AM 48.0 °F 44.1 °F 86% 30.06 in 5.0 mi ENE 3.5 mph - N/A   Overcast
2:56 AM 48.9 °F 45.0 °F 86% 30.04 in 6.0 mi NNE 5.8 mph - N/A   Overcast
3:24 AM 48.2 °F 44.6 °F 87% 30.05 in 6.0 mi North 4.6 mph - N/A   Scattered Clouds
3:56 AM 48.9 °F 45.0 °F 86% 30.05 in 5.0 mi Calm Calm - N/A   Partly Cloudy
4:56 AM 48.2 °F 44.6 °F 87% 30.07 in 5.0 mi Calm Calm - N/A   Overcast
5:56 AM 48.0 °F 45.0 °F 89% 30.09 in 5.0 mi Calm Calm - 0.00 in   Overcast
6:56 AM 48.0 °F 45.0 °F 89% 30.10 in 4.0 mi Calm Calm - 0.00 in Rain Light Rain
7:56 AM 48.9 °F 46.0 °F 90% 30.08 in 3.0 mi NE 3.5 mph - 0.00 in   Mostly Cloudy
8:56 AM 51.1 °F 46.9 °F 86% 30.09 in 4.0 mi North 4.6 mph - 0.00 in   Mostly Cloudy
9:56 AM 53.1 °F 48.0 °F 83% 30.08 in 5.0 mi NE 4.6 mph - N/A   Haze
10:56 AM 54.0 °F 48.0 °F 80% 30.07 in 6.0 mi East 5.8 mph - N/A   Haze
11:56 AM 55.9 °F 48.0 °F 75% 30.06 in 10.0 mi East 4.6 mph - N/A   Partly Cloudy
12:56 PM 55.0 °F 48.0 °F 77% 30.04 in 10.0 mi East 6.9 mph - N/A   Scattered Clouds
1:56 PM 55.0 °F 48.0 °F 77% 30.05 in 10.0 mi SE 5.8 mph - N/A   Partly Cloudy
2:43 PM 55.4 °F 48.2 °F 77% 30.02 in 8.0 mi East 10.4 mph - N/A   Mostly Cloudy
2:56 PM 54.0 °F 48.9 °F 83% 30.03 in 8.0 mi ESE 6.9 mph - N/A   Overcast
3:56 PM 54.0 °F 48.9 °F 83% 30.04 in 8.0 mi East 8.1 mph - N/A   Mostly Cloudy
4:56 PM 54.0 °F 48.9 °F 83% 30.03 in 7.0 mi East 9.2 mph - 0.00 in   Overcast
5:35 PM 53.6 °F 48.2 °F 82% 30.03 in 7.0 mi East 8.1 mph - N/A   Scattered Clouds
5:56 PM 53.1 °F 48.9 °F 86% 30.01 in 7.0 mi East 11.5 mph - N/A   Mostly Cloudy
6:09 PM 53.6 °F 48.2 °F 82% 30.00 in 9.0 mi East 10.4 mph - N/A   Mostly Cloudy
6:56 PM 54.0 °F 50.0 °F 86% 30.01 in 10.0 mi East 12.7 mph - N/A   Mostly Cloudy
7:56 PM 54.0 °F 48.9 °F 83% 30.00 in 7.0 mi East 11.5 mph - N/A   Overcast
8:56 PM 53.1 °F 48.9 °F 86% 29.99 in 10.0 mi East 11.5 mph 20.7 mph N/A   Overcast
9:34 PM 53.6 °F 48.2 °F 82% 29.96 in 10.0 mi East 15.0 mph 21.9 mph 0.00 in Rain Light Rain
9:56 PM 53.1 °F 48.9 °F 86% 29.94 in 10.0 mi East 16.1 mph 25.3 mph 0.00 in   Overcast
10:56 PM 53.1 °F 48.9 °F 86% 29.91 in 10.0 mi East 20.7 mph 27.6 mph 0.00 in   Overcast
11:56 PM 54.0 °F 51.1 °F 90% 29.83 in 4.0 mi East 17.3 mph 29.9 mph 0.11 in Rain Heavy Rain